Location: Ciechanow
(52.8812°N, 20.6195°E)
Time: 19:29:05
(UTC+01:00)

ISS - Visible Passes

Search period start: 22 February 2018 00:00
Search period end: 04 March 2018 00:00
Orbit: 402 x 407 km, 51.6° (Epoch: 23 February)

Date Brightness Start Highest point End Pass type
(mag) Time Alt. Az. Time Alt. Az. Time Alt. Az.
27 Feb -0.8 05:35:25 10° SSE 05:36:54 12° SE 05:38:22 10° ESE visible
01 Mar -1.5 05:25:52 10° SSW 05:28:26 21° SSE 05:31:00 10° E visible
02 Mar -1.1 04:34:27 10° S 04:36:20 14° SE 04:38:13 10° ESE visible
03 Mar -2.4 05:17:01 10° SW 05:20:02 34° SSE 05:23:02 10° E visible
